GW5140 Weather Reports


time (UTC)temp
C
wind
direction
speed
KPH
gust
KPH
rain 1hr
cm
rain 24hr
cm
rain mn
cm
humidity
%
barometer
mb
20260505101951 18 136 1.6 4.8 0.00 0.00 0.00 57 1013.4
20260505101449 18 170 3.2 14.5 0.00 0.00 0.00 59 1013.4
20260505100945 18 46 3.2 4.8 0.00 0.00 0.00 60 1013.4
20260505100443 18 74 1.6 4.8 0.00 0.00 0.00 60 1013.2
20260505095938 18 190 3.2 4.8 0.00 0.00 0.00 58 1013.0
20260505095436 18 71 8.0 11.3 0.00 0.00 0.00 58 1012.9
20260505094932 17 98 1.6 4.8 0.00 0.00 0.00 60 1013.0
20260505094429 17 118 4.8 9.7 0.00 0.00 0.00 61 1012.8
20260505093925 16 335 1.6 3.2 0.00 0.00 0.00 62 1012.8
20260505093422 17 181 3.2 12.9 0.00 0.00 0.00 65 1012.8
20260505092919 17 122 0.0 3.2 0.00 0.00 0.00 61 1012.7
20260505092417 17 46 9.7 11.3 0.00 0.00 0.00 60 1012.5
20260505091914 17 23 0.0 0.0 0.00 0.00 0.00 64 1012.7
20260505091411 18 129 3.2 12.9 0.00 0.00 0.00 57 1012.7
20260505090909 18 56 3.2 4.8 0.00 0.00 0.00 59 1012.5
20260505090408 18 147 6.4 11.3 0.00 0.00 0.00 61 1012.5
20260505085904 18 197 3.2 9.7 0.00 0.00 0.00 60 1012.6
20260505085402 18 59 3.2 4.8 0.00 0.00 0.00 58 1012.5
20260505084900 17 122 4.8 4.8 0.00 0.00 0.00 61 1012.3
20260505084358 18 70 1.6 6.4 0.00 0.00 0.00 58 1012.4
20260505083855 17 43 4.8 6.4 0.00 0.00 0.00 62 1012.5
20260505083353 17 68 6.4 16.1 0.00 0.00 0.00 58 1012.2
20260505082849 16 120 0.0 9.7 0.00 0.00 0.00 64 1012.4
20260505082345 16 79 1.6 4.8 0.00 0.00 0.00 64 1012.4
20260505081842 16 280 1.6 9.7 0.00 0.00 0.00 66 1012.3
20260505081338 16 173 0.0 4.8 0.00 0.00 0.00 69 1012.4
20260505080835 13 143 1.6 4.8 0.00 0.00 0.00 74 1012.4
20260505080331 13 286 3.2 4.8 0.00 0.00 0.00 77 1012.4
20260505075827 12 343 1.6 6.4 0.00 0.00 0.00 81 1012.4
20260505075324 13 241 0.0 6.4 0.00 0.00 0.00 81 1012.2
20260505074821 14 59 3.2 9.7 0.00 0.00 0.00 77 1011.9
20260505074319 12 40 1.6 4.8 0.00 0.00 0.00 85 1012.1
20260505073816 11 62 3.2 4.8 0.00 0.00 0.00 89 1011.9
20260505073314 11 87 1.6 4.8 0.00 0.00 0.00 90 1012.1
20260505072810 11 21 1.6 3.2 0.00 0.00 0.00 91 1012.1
20260505072306 10 57 0.0 0.0 0.00 0.00 0.00 90 1011.9
20260505071802 10 17 1.6 4.8 0.00 0.00 0.00 90 1011.9
20260505071259 10 53 0.0 3.2 0.00 0.00 0.00 90 1012.2
20260505070757 10 229 0.0 3.2 0.00 0.00 0.00 90 1011.9
20260505070253 10 111 3.2 3.2 0.00 0.00 0.00 90 1012.1
20260505065748 10 66 0.0 1.6 0.00 0.00 0.00 90 1012.5
20260505065246 10 31 0.0 3.2 0.00 0.00 0.00 90 1012.4
20260505064743 10 279 0.0 1.6 0.00 0.00 0.00 90 1012.2
20260505064240 11 282 0.0 1.6 0.00 0.00 0.00 90 1012.4
20260505063738 10 210 1.6 1.6 0.00 0.00 0.00 91 1012.5
20260505063234 10 110 0.0 0.0 0.00 0.00 0.00 91 1012.6
20260505062730 10 47 0.0 0.0 0.00 0.00 0.00 91 1012.5
20260505062228 10 232 3.2 3.2 0.00 0.00 0.00 91 1012.4
20260505061725 10 225 0.0 1.6 0.00 0.00 0.00 91 1012.5
20260505061223 10 315 1.6 3.2 0.00 0.00 0.00 91 1012.3
20260505060720 10 229 0.0 0.0 0.00 0.00 0.00 91 1012.4
20260505060217 -17 0.0 0.0 0.00 0.00 0.00 1012.3
20260505055712 -17 0.0 0.0 0.00 0.00 0.00 1012.4
20260505055209 -17 0.0 0.0 0.00 0.00 0.00 1012.5
20260505054706 -17 0.0 0.0 0.00 0.00 0.00 1012.4
20260505054204 -17 0.0 0.0 0.00 0.00 0.00 1012.4
20260505053702 10 225 0.0 0.0 0.00 0.00 0.00 90 1012.5
20260505053158 10 225 0.0 0.0 0.00 0.00 0.00 90 1012.5
20260505052655 10 218 0.0 0.0 0.00 0.00 0.00 90 1012.4
20260505052152 10 242 0.0 0.0 0.00 0.00 0.00 90 1012.7
20260505051649 10 215 0.0 0.0 0.00 0.00 0.00 90 1012.5
20260505051147 10 215 0.0 0.0 0.00 0.00 0.00 90 1012.3
20260505050645 10 240 0.0 0.0 0.00 0.00 0.00 90 1012.6
20260505050143 10 202 0.0 0.0 0.00 0.00 0.00 90 1012.4
20260505041612 10 236 0.0 0.0 0.00 0.00 0.00 90 1012.3
20260505041110 10 241 0.0 0.0 0.00 0.00 0.00 90 1012.3
20260505040607 10 250 0.0 0.0 0.00 0.00 0.00 90 1012.2
20260505040104 10 243 0.0 0.0 0.00 0.00 0.00 90 1012.3
20260505035600 10 232 0.0 0.0 0.00 0.00 0.00 90 1012.4
20260505035057 10 233 0.0 0.0 0.00 0.00 0.00 90 1012.4
20260505034553 10 234 0.0 0.0 0.00 0.00 0.00 90 1012.3
20260505034050 10 230 0.0 0.0 0.00 0.00 0.00 89 1012.4
20260505033547 10 227 0.0 0.0 0.00 0.00 0.00 89 1012.2
20260505033045 10 228 0.0 0.0 0.00 0.00 0.00 89 1012.4
20260505032543 10 236 0.0 0.0 0.00 0.00 0.00 89 1012.5
20260505032039 10 231 0.0 0.0 0.00 0.00 0.00 89 1012.3
20260505031537 10 238 0.0 0.0 0.00 0.00 0.00 89 1012.4
20260505031033 10 241 0.0 0.0 0.00 0.00 0.00 89 1012.5
20260505030530 10 217 0.0 0.0 0.00 0.00 0.00 88 1012.5
20260505030026 10 207 0.0 0.0 0.00 0.00 0.00 88 1012.5
20260505025522 10 207 0.0 0.0 0.00 0.00 0.00 88 1012.4
20260505025021 11 207 0.0 0.0 0.00 0.00 0.00 87 1012.4
20260505024517 11 207 0.0 0.0 0.00 0.00 0.00 87 1012.4
20260505024015 11 207 0.0 0.0 0.00 0.00 0.00 87 1012.4
20260505023511 11 207 0.0 0.0 0.00 0.00 0.00 87 1012.6
20260505023009 11 205 0.0 0.0 0.00 0.00 0.00 86 1012.3
20260505022507 11 206 0.0 0.0 0.00 0.00 0.00 86 1012.5
20260505022004 11 205 0.0 0.0 0.00 0.00 0.00 86 1012.4
20260505021500 11 185 0.0 0.0 0.00 0.00 0.00 85 1012.4
20260505020955 11 185 0.0 0.0 0.00 0.00 0.00 85 1012.5
20260505020451 12 185 0.0 0.0 0.00 0.00 0.00 84 1012.4
20260505015948 12 215 0.0 0.0 0.00 0.00 0.00 83 1012.4
20260505015446 12 213 0.0 0.0 0.00 0.00 0.00 83 1012.4
20260505014942 12 235 0.0 0.0 0.00 0.00 0.00 82 1012.5
20260505014439 12 240 0.0 0.0 0.00 0.00 0.00 82 1012.4
20260505013937 13 234 0.0 0.0 0.00 0.00 0.00 81 1012.3
20260505013433 13 305 0.0 0.0 0.00 0.00 0.00 79 1012.4
20260505012931 13 149 0.0 0.0 0.00 0.00 0.00 79 1012.4
20260505012429 13 276 0.0 0.0 0.00 0.00 0.00 78 1012.3
20260505011925 13 208 0.0 0.0 0.00 0.00 0.00 78 1012.3
20260505011421 13 29 0.0 0.0 0.00 0.00 0.00 77 1012.4
20260505010918 14 20 0.0 0.0 0.00 0.00 0.00 76 1012.3
20260505010414 15 184 0.0 0.0 0.00 0.00 0.00 74 1012.5
20260505005910 15 338 0.0 0.0 0.00 0.00 0.00 74 1012.5
20260505005407 15 42 0.0 0.0 0.00 0.00 0.00 73 1012.4
20260505004905 16 14 1.6 1.6 0.00 0.00 0.00 71 1012.5
20260505004401 16 50 3.2 3.2 0.00 0.00 0.00 67 1012.4
20260505003858 17 191 0.0 3.2 0.00 0.00 0.00 66 1012.4
20260505003355 18 146 4.8 6.4 0.00 0.00 0.00 58 1012.4
20260505002851 18 95 0.0 0.0 0.00 0.00 0.00 57 1012.4
20260505002348 19 66 0.0 1.6 0.00 0.00 0.00 56 1012.4
20260505001847 19 4 1.6 1.6 0.00 0.00 0.00 53 1012.5
20260505001343 20 136 3.2 4.8 0.00 0.00 0.00 58 1012.2
20260505000841 20 64 1.6 3.2 0.00 0.00 0.00 53 1012.2
20260505000338 20 318 1.6 3.2 0.00 0.00 0.00 53 1012.1
20260504235835 20 127 0.0 6.4 0.00 0.00 0.00 52 1012.1
20260504235332 20 264 0.0 4.8 0.00 0.00 0.00 51 1012.2
20260504234828 20 91 6.4 6.4 0.00 0.00 0.00 52 1012.2
20260504234326 20 121 0.0 0.0 0.00 0.00 0.00 56 1011.9
20260504233822 20 193 3.2 6.4 0.00 0.00 0.00 53 1011.8
20260504233318 20 2 0.0 0.0 0.00 0.00 0.00 56 1012.2
20260504232815 20 191 0.0 1.6 0.00 0.00 0.00 52 1011.9
20260504232312 21 143 0.0 0.0 0.00 0.00 0.00 52 1012.1
20260504231809 21 98 6.4 6.4 0.00 0.00 0.00 50 1012.2
20260504231306 21 133 0.0 0.0 0.00 0.00 0.00 52 1012.1
20260504230801 21 189 3.2 3.2 0.00 0.00 0.00 49 1011.9
20260504230300 21 218 0.0 4.8 0.00 0.00 0.00 51 1012.3
20260504225758 21 192 0.0 1.6 0.00 0.00 0.00 48 1012.1
20260504225254 21 70 3.2 4.8 0.00 0.00 0.00 49 1011.9
20260504224751 21 288 6.4 9.7 0.00 0.00 0.00 48 1012.1
20260504224249 22 99 1.6 14.5 0.00 0.00 0.00 48 1012.1
20260504223745 21 184 3.2 12.9 0.00 0.00 0.00 50 1012.3
20260504223240 21 83 0.0 4.8 0.00 0.00 0.00 47 1012.1
20260504222738 21 127 1.6 4.8 0.00 0.00 0.00 47 1012.3
20260504222234 21 97 8.0 11.3 0.00 0.00 0.00 47 1012.2
20260504221732 21 98 3.2 4.8 0.00 0.00 0.00 48 1012.4
20260504221229 21 192 8.0 20.9 0.00 0.00 0.00 48 1012.5
20260504220725 21 236 3.2 4.8 0.00 0.00 0.00 48 1012.4
20260504220223 21 120 3.2 11.3 0.00 0.00 0.00 49 1012.4
20260504215720 21 131 8.0 12.9 0.00 0.00 0.00 49 1012.6
20260504215217 21 233 1.6 3.2 0.00 0.00 0.00 48 1012.4
20260504214712 21 187 1.6 11.3 0.00 0.00 0.00 48 1012.1
20260504214209 21 282 4.8 16.1 0.00 0.00 0.00 48 1012.1
20260504213706 22 35 3.2 12.9 0.00 0.00 0.00 46 1011.7
20260504213202 21 205 0.0 11.3 0.00 0.00 0.00 47 1011.7
20260504212659 22 58 3.2 11.3 0.00 0.00 0.00 46 1011.8
20260504212156 22 165 3.2 17.7 0.00 0.00 0.00 47 1011.7
20260504211653 22 139 8.0 9.7 0.00 0.00 0.00 49 1011.8
20260504211149 21 14 3.2 4.8 0.00 0.00 0.00 47 1011.9
20260504210647 21 304 4.8 6.4 0.00 0.00 0.00 49 1011.8
20260504210143 21 98 1.6 14.5 0.00 0.00 0.00 47 1011.8
20260504205641 21 109 11.3 12.9 0.00 0.00 0.00 46 1012.1
20260504205138 22 174 6.4 11.3 0.00 0.00 0.00 45 1011.9
20260504204637 22 130 16.1 20.9 0.00 0.00 0.00 46 1011.9
20260504204135 22 250 6.4 12.9 0.00 0.00 0.00 44 1011.7
20260504203633 23 145 8.0 11.3 0.00 0.00 0.00 44 1011.8
20260504203131 23 295 9.7 22.5 0.00 0.00 0.00 43 1011.8
20260504202631 23 157 4.8 20.9 0.00 0.00 0.00 43 1011.8
20260504202128 23 195 6.4 9.7 0.00 0.00 0.00 43 1011.5
20260504201625 22 203 3.2 4.8 0.00 0.00 0.00 47 1011.7
20260504201123 21 33 4.8 14.5 0.00 0.00 0.00 45 1011.8
20260504200620 21 83 0.0 11.3 0.00 0.00 0.00 47 1011.9
20260504200116 22 215 8.0 16.1 0.00 0.00 0.00 45 1012.1
20260504195612 21 165 6.4 16.1 0.00 0.00 0.00 46 1012.1
20260504195108 21 151 4.8 14.5 0.00 0.00 0.00 46 1012.2
20260504194605 22 241 8.0 11.3 0.00 0.00 0.00 47 1012.2
20260504194101 22 115 1.6 17.7 0.00 0.00 0.00 45 1012.3
20260504193558 22 15 6.4 22.5 0.00 0.00 0.00 47 1012.2
20260504193056 22 294 3.2 22.5 0.00 0.00 0.00 44 1012.5
20260504192554 22 141 9.7 12.9 0.00 0.00 0.00 47 1012.2
20260504192052 21 116 1.6 12.9 0.00 0.00 0.00 44 1012.4
20260504191550 22 143 14.5 16.1 0.00 0.00 0.00 45 1012.3
20260504191045 22 40 3.2 20.9 0.00 0.00 0.00 47 1012.3
20260504190542 22 56 3.2 4.8 0.00 0.00 0.00 44 1012.2
20260504190038 22 229 6.4 14.5 0.00 0.00 0.00 45 1012.1
20260504185536 21 83 6.4 14.5 0.00 0.00 0.00 46 1012.3
20260504185032 21 326 14.5 17.7 0.00 0.00 0.00 45 1012.7
20260504184527 21 201 6.4 12.9 0.00 0.00 0.00 48 1012.6
20260504184023 21 59 6.4 12.9 0.00 0.00 0.00 46 1012.8
20260504183520 21 257 8.0 17.7 0.00 0.00 0.00 47 1012.8
20260504183019 21 127 6.4 12.9 0.00 0.00 0.00 47 1012.7
20260504182515 21 12 4.8 14.5 0.00 0.00 0.00 47 1012.7
20260504182012 20 234 1.6 3.2 0.00 0.00 0.00 51 1012.8
20260504181509 21 246 6.4 11.3 0.00 0.00 0.00 49 1012.9
20260504181008 21 164 8.0 11.3 0.00 0.00 0.00 47 1013.0
20260504180506 21 351 3.2 6.4 0.00 0.00 0.00 48 1013.1
20260504180004 21 74 3.2 20.9 0.00 0.00 0.00 47 1013.1
20260504175501 21 118 11.3 17.7 0.00 0.00 0.00 49 1012.9
20260504174958 20 55 1.6 20.9 0.00 0.00 0.00 48 1013.4
20260504174456 21 43 4.8 11.3 0.00 0.00 0.00 48 1013.3
20260504173953 21 110 8.0 12.9 0.00 0.00 0.00 48 1013.0
20260504173449 21 158 3.2 17.7 0.00 0.00 0.00 50 1013.3
20260504172947 20 336 6.4 12.9 0.00 0.00 0.00 55 1013.1
20260504172443 20 160 4.8 4.8 0.00 0.00 0.00 52 1013.6
20260504171939 20 220 11.3 12.9 0.00 0.00 0.00 50 1013.5
20260504171437 20 108 17.7 22.5 0.00 0.00 0.00 50 1013.5
20260504170934 20 130 11.3 14.5 0.00 0.00 0.00 48 1013.4
20260504170430 19 348 3.2 9.7 0.00 0.00 0.00 53 1013.7
20260504160349 19 264 6.4 9.7 0.00 0.00 0.00 49 1014.6
20260504150813 18 131 0.0 14.5 0.00 0.00 0.00 46 1015.0
20260504150310 18 114 3.2 14.5 0.00 0.00 0.00 46 1015.6
20260504141240 16 100 4.8 22.5 0.00 0.00 0.00 50 1015.6
20260504140736 16 45 3.2 12.9 0.00 0.00 0.00 49 1015.6
20260504140232 16 252 16.1 20.9 0.00 0.00 0.00 51 1015.7
20260504130701 14 252 8.0 11.3 0.00 0.00 0.00 53 1015.6
20260504130157 14 199 4.8 16.1 0.00 0.00 0.00 52 1015.7
20260504120121 7 15 3.2 3.2 0.00 0.00 0.00 87 1015.8
20260504110549 5 112 0.0 0.0 0.00 0.00 0.00 90 1016.1